Tarboro, NC

6:46 PM EDT on July 23, 2016 (GMT -0400)
Tarboro-edgecombe

Weather History for KETC - January, 2013

Change the Weather History Date:

Tuesday, January 29, 2013

  Actual Average Record
Temperature  
Mean Temperature 62 °F -  
Max Temperature 74 °F 54 °F 80 °F (1970)
Min Temperature 49 °F 27 °F 11 °F (2014)
Degree Days  
Heating Degree Days 4    
Growing Degree Days 12 (Base 50)    
Moisture  
Dew Point 51 °F    
Average Humidity 72    
Maximum Humidity 85    
Minimum Humidity 47    
Precipitation  
Precipitation 0.00 in - - ()
Sea Level Pressure  
Sea Level Pressure 30.15 in    
Wind  
Wind Speed 7 mph (SW)    
Max Wind Speed 12 mph    
Max Gust Speed -    
Visibility 10 miles    
Events      
Averages and records for this station are not official NWS values.
T = Trace of Precipitation, MM = Missing Value Source: NWS Daily Summary

Daily Weather History Graph

Daily Weather History Graph

Search for Another Location

Airport or City:

Trip Planner

Search our weather history database for the weather conditions in past years. The results will help you decide how hot, cold, wet, or windy it might be!

Date:

Astronomy

Jan. 29, 2013 Rise Set
Actual Time 7:12 AM EST 5:34 PM EST
Civil Twilight 6:45 AM EST 6:01 PM EST
Nautical Twilight 6:14 AM EST 6:32 PM EST
Astronomical Twilight 5:44 AM EST 7:02 PM EST
Moon 8:20 PM EST (1/29) 8:15 AM EST (1/29)
Length of Visible Light 11h 15m
Length of Day
10h 21m
Waning Gibbous, 94% of the Moon is Illuminated
Jan 29
Waning Gibbous
Feb 3
Last Quarter
Feb 10
New
Feb 17
First Quarter
Feb 25
Full

Hourly Weather History & Observations

Time (EST) Temp. Dew Point Humidity Pressure Visibility Wind Dir Wind Speed Gust Speed Precip Events Conditions
12:15 AM 52.3 °F 45.7 °F 78% 30.21 in 10.0 mi SW 8.1 mph - N/A   Overcast
12:35 AM 53.1 °F 46.6 °F 79% 30.21 in 10.0 mi SW 8.1 mph - N/A   Overcast
12:55 AM 52.9 °F 46.6 °F 79% 30.21 in 10.0 mi SW 6.9 mph - N/A   Overcast
1:15 AM 52.0 °F 46.4 °F 81% 30.20 in 10.0 mi SSW 6.9 mph - N/A   Scattered Clouds
1:35 AM 51.3 °F 46.4 °F 83% 30.20 in 10.0 mi SW 5.8 mph - N/A   Clear
1:55 AM 51.6 °F 46.8 °F 83% 30.21 in 10.0 mi SW 5.8 mph - N/A   Clear
2:15 AM 51.8 °F 47.1 °F 84% 30.20 in 10.0 mi SSW 3.5 mph - N/A   Clear
2:35 AM 51.4 °F 46.9 °F 85% 30.20 in 10.0 mi WSW 8.1 mph - N/A   Clear
2:55 AM 51.4 °F 46.8 °F 84% 30.20 in 10.0 mi WSW 6.9 mph - N/A   Clear
3:15 AM 51.6 °F 46.4 °F 82% 30.19 in 10.0 mi SW 8.1 mph - N/A   Clear
3:55 AM 51.3 °F 45.9 °F 82% 30.18 in 10.0 mi SW 5.8 mph - N/A   Clear
4:15 AM 51.1 °F 45.7 °F 82% 30.18 in 10.0 mi WSW 4.6 mph - N/A   Scattered Clouds
4:35 AM 51.1 °F 45.5 °F 81% 30.18 in 10.0 mi SW 5.8 mph - N/A   Scattered Clouds
4:55 AM 50.5 °F 45.5 °F 83% 30.18 in 10.0 mi SW 5.8 mph - N/A   Clear
5:15 AM 50.0 °F 45.3 °F 84% 30.18 in 10.0 mi SW 4.6 mph - N/A   Clear
5:35 AM 49.6 °F 45.1 °F 84% 30.18 in 10.0 mi SW 5.8 mph - N/A   Clear
5:55 AM 49.6 °F 45.3 °F 85% 30.18 in 10.0 mi SW 6.9 mph - N/A   Clear
6:15 AM 50.4 °F 45.7 °F 84% 30.18 in 10.0 mi WSW 5.8 mph - N/A   Clear
6:35 AM 50.9 °F 46.0 °F 83% 30.18 in 10.0 mi WSW 6.9 mph - N/A   Scattered Clouds
6:55 AM 51.3 °F 46.4 °F 83% 30.19 in 10.0 mi WSW 5.8 mph - N/A   Clear
7:15 AM 51.4 °F 46.4 °F 83% 30.19 in 10.0 mi SW 8.1 mph - N/A   Clear
7:35 AM 51.8 °F 46.6 °F 82% 30.20 in 10.0 mi West 5.8 mph - N/A   Clear
7:55 AM 51.8 °F 46.8 °F 83% 30.20 in 10.0 mi WSW 4.6 mph - N/A   Clear
8:15 AM 52.3 °F 47.3 °F 83% 30.21 in 10.0 mi WSW 6.9 mph - N/A   Scattered Clouds
8:35 AM 53.1 °F 47.5 °F 81% 30.21 in 10.0 mi WSW 9.2 mph - N/A   Clear
8:55 AM 53.6 °F 47.7 °F 80% 30.21 in 10.0 mi WSW 8.1 mph - N/A   Clear
9:15 AM 55.4 °F 48.4 °F 77% 30.21 in 10.0 mi WSW 9.2 mph - N/A   Clear
9:35 AM 57.4 °F 48.6 °F 72% 30.21 in 10.0 mi WSW 9.2 mph - N/A   Clear
9:55 AM 59.2 °F 49.1 °F 69% 30.20 in 10.0 mi WSW 9.2 mph - N/A   Clear
10:15 AM 61.3 °F 49.8 °F 66% 30.20 in 10.0 mi WSW 9.2 mph - N/A   Clear
10:35 AM 63.0 °F 50.0 °F 63% 30.20 in 10.0 mi WSW 9.2 mph - N/A   Clear
10:55 AM 64.8 °F 50.5 °F 60% 30.20 in 10.0 mi WSW 10.4 mph - N/A   Clear
11:15 AM 66.0 °F 50.5 °F 57% 30.19 in 10.0 mi West 11.5 mph - N/A   Scattered Clouds
11:35 AM 67.3 °F 50.9 °F 56% 30.18 in 10.0 mi West 11.5 mph - N/A   Clear
11:55 AM 68.2 °F 51.1 °F 54% 30.17 in 10.0 mi SW 9.2 mph - N/A   Clear
12:15 PM 69.8 °F 51.6 °F 52% 30.15 in 10.0 mi SW 6.9 mph - N/A   Clear
12:35 PM 70.9 °F 52.0 °F 51% 30.14 in 10.0 mi SW 8.1 mph - N/A   Clear
12:55 PM 71.2 °F 52.0 °F 51% 30.13 in 10.0 mi WSW 10.4 mph - N/A   Clear
1:15 PM 72.3 °F 52.2 °F 49% 30.12 in 10.0 mi WSW 10.4 mph - N/A   Clear
1:35 PM 72.7 °F 52.7 °F 49% 30.11 in 10.0 mi WSW 6.9 mph - N/A   Clear
1:55 PM 73.6 °F 52.9 °F 48% 30.10 in 10.0 mi WSW 6.9 mph - N/A   Clear
2:15 PM 74.3 °F 53.1 °F 47% 30.10 in 10.0 mi SW 4.6 mph - N/A   Clear
2:35 PM 73.8 °F 53.4 °F 49% 30.10 in 10.0 mi WSW 8.1 mph - N/A   Clear
2:55 PM 73.4 °F 54.0 °F 50% 30.10 in 10.0 mi SW 9.2 mph - N/A   Clear
3:15 PM 73.6 °F 54.3 °F 51% 30.10 in 10.0 mi SSW 6.9 mph - N/A   Clear
3:35 PM 73.9 °F 54.3 °F 50% 30.10 in 10.0 mi SSW 6.9 mph - N/A   Clear
3:55 PM 73.4 °F 54.5 °F 51% 30.10 in 10.0 mi SW 8.1 mph - N/A   Clear
4:15 PM 73.0 °F 54.7 °F 52% 30.10 in 10.0 mi SW 5.8 mph - N/A   Clear
4:35 PM 72.3 °F 54.9 °F 54% 30.10 in 10.0 mi SSW 5.8 mph - N/A   Clear
4:55 PM 71.4 °F 55.2 °F 57% 30.10 in 10.0 mi South 3.5 mph - N/A   Clear
5:15 PM 70.3 °F 55.4 °F 59% 30.10 in 10.0 mi South 3.5 mph - N/A   Clear
5:35 PM 68.9 °F 55.4 °F 62% 30.10 in 10.0 mi South 3.5 mph - N/A   Clear
5:55 PM 66.2 °F 55.2 °F 68% 30.10 in 10.0 mi South 3.5 mph - N/A   Clear
6:15 PM 62.6 °F 54.5 °F 75% 30.10 in 10.0 mi SSE 3.5 mph - N/A   Clear
6:35 PM 62.2 °F 54.5 °F 76% 30.10 in 10.0 mi SSE 3.5 mph - N/A   Clear
6:55 PM 62.4 °F 54.1 °F 74% 30.10 in 10.0 mi SSE 3.5 mph - N/A   Clear
7:15 PM 61.2 °F 53.8 °F 77% 30.10 in 10.0 mi South 3.5 mph - N/A   Clear
7:35 PM 58.1 °F 52.9 °F 83% 30.10 in 10.0 mi Calm Calm - N/A   Clear
7:55 PM 58.1 °F 52.9 °F 83% 30.10 in 10.0 mi South 3.5 mph - N/A   Clear
8:15 PM 58.6 °F 52.9 °F 81% 30.10 in 10.0 mi South 4.6 mph - N/A   Clear
8:35 PM 60.1 °F 53.4 °F 79% 30.10 in 10.0 mi South 4.6 mph - N/A   Clear
8:55 PM 60.8 °F 53.8 °F 78% 30.10 in 10.0 mi South 5.8 mph - N/A   Clear
9:15 PM 61.0 °F 53.8 °F 77% 30.10 in 10.0 mi South 5.8 mph - N/A   Clear
9:35 PM 61.0 °F 53.8 °F 77% 30.10 in 10.0 mi South 4.6 mph - N/A   Clear
9:55 PM 60.8 °F 53.8 °F 78% 30.10 in 10.0 mi South 4.6 mph - N/A   Clear
10:15 PM 61.0 °F 54.0 °F 78% 30.10 in 10.0 mi South 4.6 mph - N/A   Clear
10:35 PM 61.2 °F 54.1 °F 78% 30.10 in 10.0 mi South 4.6 mph - N/A   Clear
10:55 PM 61.0 °F 54.5 °F 79% 30.11 in 10.0 mi South 4.6 mph - N/A   Clear
11:15 PM 61.2 °F 54.9 °F 80% 30.11 in 10.0 mi South 4.6 mph - N/A   Clear
11:35 PM 61.2 °F 55.0 °F 80% 30.11 in 10.0 mi South 3.5 mph - N/A   Scattered Clouds
11:55 PM 60.4 °F 54.9 °F 82% 30.10 in 10.0 mi South 4.6 mph - N/A   Scattered Clouds